Vertical_Velocity
-0 -2 -2 1 -1 7 10 -4 12 -8 11 -5 14 2 4 -2 -1 -3 -3 -1 -0 0 -1 -1 -0 -1 -3 -3 -2 -2 -1 -1 -1 -1 1 1 1 1 1 6 2 -1 -3 -0
-3 -2 -2 1 -1 -3 -10 0 7 7 1 -10 17 -4 -1 -1 -3 -2 -2 -2 -1 -2 -1 -3 -4 -4 -3 -2 -1 -1 -0 -0 0 1 -2 -0 0 1 1 -0 -3 0 -2 -4
0 4 1 -2 -0 -1 -2 -1 5 11 -10 -8 3 18 -12 -2 -4 -3 -3 -1 -2 -0 -1 -1 1 0 -1 -2 -3 -3 -3 -3 1 1 -0 -1 -2 -2 1 3 3 1 2 4
1 1 -0 1 -2 -2 -1 -6 1 4 -4 -0 -9 5 7 -4 -2 -2 -2 -1 -0 -1 0 -1 -1 -0 0 0 -0 -0 0 -0 -2 -1 -1 -1 -1 -2 -3 -2 -0 0 0 -1
4 1 -1 -2 -0 -4 24 19 -6 -7 2 -5 2 -9 -13 -11 41 -3 -1 1 -3 1 1 0 -2 -1 0 1 0 1 1 -1 -1 -2 -2 -0 0 -1 -1 -2 -3 -3 -1 -2
0 1 -0 1 -0 -3 -5 1 -4 -5 -2 -1 21 -7 26 -9 -12 -8 -7 -3 1 -4 1 -0 -1 -1 0 1 1 -0 2 1 -1 2 2 -1 -2 -1 -1 -2 -3 -4 -3 -1
0 -2 -2 0 3 -3 -2 1 -3 -3 1 -5 18 8 20 15 11 -9 -2 -0 -2 -0 -2 1 -2 -0 -2 0 0 0 -0 0 -0 -2 0 -0 1 -1 -1 -2 2 2 1 -2
0 -2 -1 -3 -2 -3 -2 4 5 -8 3 15 3 -16 -22 -9 -14 -14 -1 -4 0 0 1 -2 -1 -1 -3 -1 -0 -1 -2 -2 -1 -4 -3 -2 -4 0 -2 -1 -2 -3 -3 -1
1 7 2 -2 -0 -3 -6 -8 -1 1 -14 -7 21 11 -4 -11 1 -1 -1 3 -8 -5 1 -1 -3 -2 -2 -1 -1 -3 -2 -2 -3 -0 -1 0 -1 -1 1 2 1 -0 -2 -2
30 2 8 0 -3 2 6 -6 -4 -8 -10 12 10 -0 4 -3 -3 -1 3 1 5 -7 -2 -2 -2 0 -1 -1 -0 -2 -1 -2 -2 -2 -3 -1 1 2 -0 -2 -2 -2 -2 -1
5 11 -6 -1 -8 4 -5 -4 1 20 -6 22 -4 35 4 -1 -2 -5 -2 0 0 2 2 1 1 -3 -1 -1 1 -1 -2 -0 -2 -2 -2 -1 -3 -2 0 -1 -3 -2 -2 -2
-3 2 4 0 -0 -3 17 -2 -8 -9 -6 -12 -13 42 -3 -2 3 -3 -0 -5 -0 1 -1 -0 -0 -3 2 0 0 -1 -1 -1 -1 -3 0 1 0 -2 -2 -2 -3 -4 -3 -3
-2 -8 5 8 4 1 -1 -2 11 0 -11 -13 -6 28 -9 -3 -5 -1 0 2 -4 4 -0 -1 -3 -4 -0 -1 -1 1 -1 -1 -3 3 2 2 -2 -2 -1 -2 -2 -1 -1 -1
-5 2 -7 8 -9 7 -7 -6 -4 -6 22 16 -3 21 -9 -2 -3 -3 -2 -3 8 -5 -1 1 1 -0 -1 -1 0 -1 2 -3 -1 -4 -4 -2 0 -2 -4 -2 -2 -3 -0 -0
-2 -4 -1 -3 -6 27 -6 2 -9 0 -14 5 32 -22 3 3 1 -5 -1 3 -3 1 -1 -4 -1 -2 -2 0 1 -0 -1 2 -5 -4 1 -2 -1 -2 -2 -2 -4 -2 -4 -4
-5 -5 -3 -5 8 -11 19 16 26 3 -10 -14 -8 5 15 -6 -7 -3 -1 0 -1 1 2 0 -1 -3 1 -1 1 1 1 -0 2 -2 -1 -2 0 -3 -3 -3 -0 0 -2 -3
-4 2 -6 -8 7 -1 9 -8 -4 9 14 7 -3 22 -17 -10 -7 -6 -4 -1 1 1 -0 2 1 -2 -2 1 2 2 0 -2 -2 0 -0 -4 0 0 0 -1 -1 -2 1 1
4 -1 2 -11 -2 9 -16 14 11 8 15 -6 -6 -8 -11 -5 -2 -2 -6 -2 -1 -1 0 2 2 1 2 1 2 1 -1 -0 -3 0 -2 -0 1 -1 -1 -0 -0 -2 -1 -2
-3 -10 7 -17 -10 2 18 -10 -18 -25 -2 9 -9 -8 -6 -2 -12 6 -9 2 -0 -2 -1 0 0 -2 -1 2 2 1 -5 -1 -0 -3 2 0 -4 -0 -1 -3 1 2 4 -1
-0 -7 -4 2 -3 2 1 71 56 27 -4 -18 -11 2 -12 -0 2 -23 -5 -1 0 -1 -1 1 -1 -1 -1 -0 -3 3 2 -1 -3 -4 1 -1 -2 -1 -2 -0 -1 1 -0 4
-2 1 -10 -4 -19 3 -6 19 -7 -5 23 -3 -3 -5 -2 1 -0 -5 -4 -2 -3 -1 -1 1 -1 -3 -2 2 0 4 -2 1 -2 0 -2 -2 -1 1 -2 4 1 2 3 4
-16 -0 -16 -2 4 -10 19 -5 22 3 -13 -9 -8 -2 -5 4 2 -4 -2 -3 1 0 -1 -1 1 -2 -1 1 3 -0 -2 0 -3 -2 -1 -3 -6 -0 -7 -4 7 3 6 3
-13 151 -20 26 26 14 -10 9 -3 -5 -4 -4 -2 2 -0 4 5 10 -17 -2 -4 -1 0 0 1 2 -2 -0 3 1 1 1 -0 -5 -2 4 -3 -5 0 1 0 -0 -3 2
-10 -8 -5 0 10 -18 19 -1 -4 4 -1 -3 -1 2 1 0 4 8 -5 -4 -6 -2 -0 3 -2 -3 -5 -2 -1 4 1 -2 -1 -0 -1 -3 -1 1 -3 1 -2 -8 10 -3
14 -0 -7 2 -2 0 -21 -8 9 -5 -1 -1 1 -1 -0 -1 4 0 -4 1 -3 -2 -3 -1 -0 -3 -8 -2 -4 -2 2 -2 -0 -0 -1 -2 2 -6 -4 1 7 -3 3 -1
11 1 3 -5 -12 17 -41 17 2 4 -0 -1 -0 0 1 1 1 -6 -2 3 -7 4 19 -7 -3 34 0 2 -2 -3 -6 -2 0 -2 -2 1 -3 0 -8 -9 6 3 -1 -1
Height
5914 5917 5919 5924 5929 5936 5939 5938 5941 5941 5937 5938 5940 5932 5933 5931 5930 5929 5929 5929 5929 5928 5928 5927 5925 5924 5923 5923 5923 5923 5922 5921 5920 5918 5917 5915 5912 5909 5907 5905 5902 5901 5899 5896
5910 5913 5919 5923 5925 5929 5931 5936 5939 5938 5937 5936 5936 5933 5928 5929 5928 5929 5928 5928 5928 5927 5926 5926 5925 5924 5924 5924 5923 5922 5922 5920 5919 5917 5915 5913 5909 5907 5904 5903 5900 5898 5895 5893
5909 5912 5915 5919 5922 5924 5925 5931 5936 5937 5932 5931 5931 5931 5927 5928 5927 5927 5927 5927 5927 5927 5926 5927 5927 5926 5925 5924 5923 5922 5920 5918 5916 5915 5913 5910 5908 5905 5901 5898 5895 5893 5890 5888
5907 5909 5911 5914 5917 5920 5925 5927 5931 5933 5931 5932 5930 5935 5924 5924 5925 5926 5925 5925 5926 5926 5926 5926 5926 5925 5924 5923 5922 5920 5919 5917 5914 5912 5909 5906 5904 5902 5899 5896 5893 5890 5887 5883
5904 5907 5909 5911 5915 5918 5926 5926 5925 5927 5929 5929 5927 5930 5922 5923 5918 5923 5924 5924 5923 5924 5925 5925 5924 5923 5922 5921 5920 5919 5916 5914 5911 5909 5907 5905 5902 5899 5895 5892 5890 5887 5884 5880
5902 5904 5906 5910 5914 5916 5916 5920 5921 5922 5926 5927 5928 5922 5930 5922 5916 5917 5918 5919 5921 5921 5922 5921 5920 5920 5919 5917 5917 5915 5913 5910 5908 5905 5903 5900 5897 5895 5891 5889 5885 5881 5879 5876
5896 5900 5903 5909 5913 5911 5912 5917 5919 5922 5923 5924 5923 5925 5927 5924 5922 5918 5916 5914 5914 5915 5916 5917 5916 5915 5914 5913 5912 5910 5908 5906 5904 5901 5898 5896 5893 5889 5886 5882 5878 5875 5872 5868
5895 5897 5899 5901 5906 5907 5909 5916 5919 5920 5922 5923 5917 5917 5917 5916 5913 5911 5912 5911 5911 5911 5911 5911 5911 5910 5909 5908 5906 5905 5903 5901 5900 5897 5894 5891 5887 5884 5880 5876 5872 5868 5865 5861
5895 5899 5899 5898 5903 5906 5907 5907 5916 5918 5917 5917 5918 5915 5912 5908 5908 5907 5908 5909 5906 5906 5907 5906 5905 5904 5903 5902 5901 5899 5898 5896 5893 5891 5888 5885 5881 5877 5873 5870 5865 5861 5858 5853
5897 5898 5897 5898 5900 5903 5904 5906 5909 5911 5913 5915 5915 5912 5911 5903 5903 5903 5904 5904 5904 5901 5901 5901 5899 5898 5897 5896 5895 5893 5891 5888 5886 5884 5881 5878 5875 5871 5867 5863 5858 5853 5848 5844
5887 5893 5894 5894 5891 5896 5897 5899 5905 5909 5909 5911 5912 5912 5903 5899 5898 5898 5897 5898 5898 5897 5896 5895 5894 5892 5891 5890 5889 5886 5884 5881 5878 5876 5874 5871 5867 5863 5859 5854 5849 5845 5840 5836
5878 5884 5887 5889 5889 5891 5897 5896 5898 5901 5904 5905 5905 5907 5899 5896 5895 5892 5892 5890 5891 5890 5889 5889 5887 5886 5885 5884 5882 5879 5877 5874 5872 5870 5866 5862 5859 5854 5850 5845 5841 5836 5832 5827
5873 5876 5881 5884 5886 5887 5887 5892 5896 5897 5900 5896 5901 5902 5893 5892 5890 5889 5887 5886 5883 5884 5883 5882 5880 5879 5878 5877 5875 5873 5870 5867 5865 5863 5859 5855 5851 5846 5842 5837 5832 5827 5822 5818
5863 5869 5871 5876 5881 5884 5881 5883 5888 5891 5893 5896 5894 5896 5887 5888 5880 5882 5881 5881 5879 5876 5876 5876 5874 5872 5871 5870 5869 5866 5864 5860 5857 5854 5849 5845 5842 5838 5834 5828 5823 5817 5812 5807
5856 5860 5865 5869 5873 5879 5879 5879 5880 5883 5886 5886 5890 5881 5884 5878 5873 5876 5875 5874 5871 5870 5869 5866 5867 5864 5864 5862 5861 5859 5856 5853 5849 5845 5841 5836 5833 5829 5824 5818 5813 5807 5802 5796
5847 5852 5857 5861 5867 5871 5874 5876 5877 5877 5879 5880 5882 5882 5876 5870 5869 5868 5866 5865 5864 5863 5862 5859 5858 5856 5856 5855 5854 5851 5848 5845 5842 5838 5833 5829 5824 5820 5814 5809 5803 5797 5791 5786
5840 5847 5851 5854 5861 5864 5863 5867 5870 5872 5872 5871 5873 5873 5864 5859 5861 5860 5859 5858 5857 5855 5854 5853 5851 5850 5848 5847 5845 5843 5840 5837 5834 5830 5825 5821 5816 5811 5805 5799 5793 5788 5782 5775
5834 5837 5844 5850 5854 5853 5857 5859 5859 5862 5863 5861 5860 5859 5855 5852 5851 5850 5848 5848 5847 5847 5846 5845 5844 5842 5841 5839 5837 5835 5833 5830 5826 5822 5817 5811 5806 5802 5796 5789 5783 5777 5771 5765
5825 5830 5838 5841 5843 5847 5846 5845 5850 5852 5853 5852 5849 5848 5844 5844 5842 5842 5836 5839 5839 5839 5838 5837 5836 5834 5832 5831 5829 5827 5824 5821 5818 5812 5807 5802 5797 5792 5787 5780 5774 5768 5761 5755
5819 5822 5827 5834 5833 5835 5833 5835 5837 5837 5837 5841 5839 5836 5833 5837 5836 5830 5829 5831 5831 5831 5830 5828 5827 5826 5824 5822 5820 5819 5816 5812 5807 5802 5798 5793 5788 5783 5778 5771 5764 5753 5749 5746
5813 5815 5818 5822 5825 5829 5834 5820 5819 5826 5832 5823 5826 5827 5827 5828 5827 5825 5822 5822 5821 5821 5821 5819 5817 5817 5816 5814 5812 5810 5806 5802 5797 5794 5790 5784 5778 5773 5768 5762 5754 5745 5740 5739
5800 5806 5809 5814 5817 5818 5820 5815 5819 5817 5817 5817 5818 5819 5818 5819 5818 5816 5815 5813 5812 5812 5811 5809 5808 5806 5806 5805 5802 5799 5796 5791 5788 5784 5778 5773 5768 5763 5756 5752 5748 5741 5736 5729
5792 5779 5791 5799 5800 5797 5800 5803 5802 5804 5808 5809 5809 5810 5810 5811 5810 5809 5802 5804 5804 5804 5802 5799 5798 5797 5796 5795 5793 5789 5784 5780 5776 5771 5767 5762 5756 5752 5746 5741 5736 5730 5725 5720
5777 5779 5787 5791 5787 5789 5792 5788 5792 5795 5796 5798 5799 5799 5800 5799 5799 5798 5794 5792 5793 5792 5790 5789 5786 5785 5784 5783 5781 5777 5772 5768 5764 5759 5755 5750 5744 5740 5734 5730 5724 5720 5717 5711
5771 5769 5774 5779 5779 5783 5779 5783 5784 5784 5785 5785 5786 5787 5787 5787 5787 5785 5783 5783 5782 5781 5779 5777 5776 5772 5772 5770 5767 5764 5760 5756 5752 5748 5743 5738 5733 5728 5724 5722 5716 5710 5707 5703
5761 5762 5765 5765 5765 5768 5769 5772 5773 5774 5774 5774 5775 5775 5775 5775 5775 5772 5773 5772 5770 5770 5770 5768 5761 5758 5759 5756 5756 5752 5749 5746 5741 5736 5731 5726 5722 5718 5713 5711 5708 5703 5699 5694